Satellite: POLLUX
Catalog number: 35693
Epoch time:      09281.73835499
Element set:      69
Inclination:      051.6378 deg
RA of node:       079.8398 deg
Eccentricity:    0.0003089
Arg of perigee:   278.3421 deg
Mean anomaly:     081.6987 deg
Mean motion:   15.82980838 rev/day
Decay rate:     2.8510e-04 rev/day^2
Epoch rev:            1108
Checksum:              354

Satellite: CASTOR
Catalog number: 35694
Epoch time:      09281.76994682
Element set:      66
Inclination:      051.6392 deg
RA of node:       080.0666 deg
Eccentricity:    0.0003151
Arg of perigee:   285.4687 deg
Mean anomaly:     074.5880 deg
Mean motion:   15.81502465 rev/day
Decay rate:     1.4667e-04 rev/day^2
Epoch rev:            1108
Checksum:              322

Satellite: METEOR-M
Catalog number: 35865
Epoch time:      09281.76650640
Element set:      19
Inclination:      098.7975 deg
RA of node:       331.8829 deg
Eccentricity:    0.0002899
Arg of perigee:   027.2485 deg
Mean anomaly:     332.8774 deg
Mean motion:   14.21827137 rev/day
Decay rate:       1.76e-06 rev/day^2
Epoch rev:             299
Checksum:              340

Satellite: STERKH-2
Catalog number: 35866
Epoch time:      09280.63398785
Element set:    0022
Inclination:      098.7987 deg
RA of node:       330.7740 deg
Eccentricity:    0.0003392
Arg of perigee:   029.6061 deg
Mean anomaly:     330.5271 deg
Mean motion:   14.22296401 rev/day
Decay rate:       1.78e-06 rev/day^2
Epoch rev:           00283
Checksum:              306

Satellite: FREGAT-I
Catalog number: 35867
Epoch time:      09281.82260829
Element set:      33
Inclination:      097.3715 deg
RA of node:       331.5049 deg
Eccentricity:    0.0008931
Arg of perigee:   209.1338 deg
Mean anomaly:     150.9240 deg
Mean motion:   15.22722183 rev/day
Decay rate:      2.264e-05 rev/day^2
Epoch rev:             321
Checksum:              279

Satellite: SUMBDILA
Catalog number: 35870
Epoch time:      09281.90645946
Element set:      60
Inclination:      097.3706 deg
RA of node:       331.5781 deg
Eccentricity:    0.0010696
Arg of perigee:   214.8334 deg
Mean anomaly:     251.3038 deg
Mean motion:   15.22803385 rev/day
Decay rate:       4.29e-06 rev/day^2
Epoch rev:             322
Checksum:              289

/EX



_______________________________________________
Via the Keps mailing list courtesy of AMSAT-NA
http://amsat.org/mailman/listinfo/keps

--- ViaMAIL!/WC v1.60d
 * Origin: Chowdanet (401-724-4410) telnet://chowdanet.com  (1:323/120)